Location: Madrid
(40.4167°N, 3.7036°W)
Time: 02:17:23
(UTC+00:00)

ISS - Pass Details

Date: 08 May 2026
Orbit: 414 x 424 km, 51.6° (Epoch: 15 May)

Event Time Altitude Azimuth Distance (km) Brightness Sun altitude
Exits shadow 02:07:34 13° 337° (NNW) 1,315 -0.9 -26.5°
Maximum altitude 02:09:36 21° 21° (NNE) 994 -1.1 -26.3°
Drops below altitude 10° 02:12:15 10° 74° (ENE) 1,497 -0.4 -26.0°
Sets 02:14:41 0° 90° (E) 2,361 0.5 -25.8°
